Location: Christianberg
(48.9086°N, 14.0209°E)
Time: 18:38:52
(UTC+00:00)

SL-4 R/B - Pass Details

Date: 27 October 2021
Orbit: 427 x 661 km, 51.6° (Epoch: 02 December)

Event Time Altitude Azimuth Distance (km) Brightness Sun altitude
Exits shadow 04:07:04 15° 216° (SW) 1,540 4.0 -16.3°
Drops below altitude 10° 04:08:54 10° 190° (S) 1,818 4.6 -16.0°
Sets 04:11:45 0° 168° (SSE) 2,650 5.7 -15.5°
